ACA107 CYYZ-CYVR

Flight info

Callsign ACA107
Flight time N/A
Altitude 40000
Route AVSEP7 MUSIT DCT SSM DCT YQT DCT GABOV DCT SEGAP DCT WALSH DCT DESNU Q888 BOOTH CANUC6
Aircraft B788/H-SDE1E2E3FGHIJ2J3J4J5M1RWXY/LB1D1

Departure

Time N/A
Airport Toronto Pearson International Airport (CYYZ)

Arrival

Time 2026-05-04 23:01
Airport Vancouver International Airport (CYVR)
Time Latitude Longitude Altitude Speed Heading
2026-05-04 22:31 49.75325 -119.28128 39881 ft 452 kts 273°
2026-05-04 22:32 49.74980 -119.32974 39882 ft 455 kts 273°
2026-05-04 22:32 49.74275 -119.42707 39875 ft 455 kts 273°
2026-05-04 22:33 49.73568 -119.52421 39871 ft 456 kts 273°
2026-05-04 22:33 49.72853 -119.62091 39871 ft 455 kts 272°
2026-05-04 22:34 49.72129 -119.71801 39841 ft 455 kts 272°
2026-05-04 22:34 49.71394 -119.81518 39877 ft 456 kts 272°
2026-05-04 22:35 49.70649 -119.91256 39885 ft 457 kts 272°
2026-05-04 22:35 49.69902 -120.00943 39897 ft 458 kts 272°
2026-05-04 22:36 49.69139 -120.10688 39892 ft 456 kts 272°
2026-05-04 22:36 49.68372 -120.20370 39605 ft 450 kts 272°
2026-05-04 22:36 49.67992 -120.25177 38848 ft 453 kts 272°
2026-05-04 22:37 49.67607 -120.29996 38206 ft 451 kts 272°
2026-05-04 22:37 49.67218 -120.34782 37571 ft 447 kts 272°
2026-05-04 22:37 49.66839 -120.39478 36946 ft 446 kts 272°
2026-05-04 22:37 49.66457 -120.44211 36310 ft 445 kts 272°
2026-05-04 22:38 49.66070 -120.48951 35675 ft 445 kts 272°
2026-05-04 22:38 49.65679 -120.53678 35050 ft 443 kts 272°
2026-05-04 22:38 49.65289 -120.58384 34427 ft 441 kts 272°
2026-05-04 22:38 49.64902 -120.63054 33791 ft 439 kts 272°
2026-05-04 22:39 49.64515 -120.67710 33117 ft 435 kts 271°
2026-05-04 22:39 49.64128 -120.72315 32541 ft 430 kts 271°
2026-05-04 22:39 49.63748 -120.76808 31959 ft 426 kts 271°
2026-05-04 22:39 49.63362 -120.81381 31354 ft 422 kts 270°
2026-05-04 22:40 49.62989 -120.85781 30771 ft 418 kts 270°
2026-05-04 22:40 49.62609 -120.90214 30200 ft 415 kts 270°
2026-05-04 22:40 49.62232 -120.94611 29581 ft 412 kts 270°
2026-05-04 22:40 49.61856 -120.98956 29009 ft 406 kts 270°
2026-05-04 22:41 49.61486 -121.03231 28460 ft 401 kts 270°
2026-05-04 22:41 49.61118 -121.07461 27918 ft 395 kts 270°
2026-05-04 22:41 49.60753 -121.11635 27377 ft 391 kts 270°
2026-05-04 22:41 49.60393 -121.15771 26810 ft 388 kts 269°
2026-05-04 22:42 49.60035 -121.19806 26295 ft 382 kts 269°
2026-05-04 22:42 49.59677 -121.23848 25804 ft 379 kts 269°
2026-05-04 22:42 49.59323 -121.27855 25268 ft 377 kts 269°
2026-05-04 22:42 49.58968 -121.31853 24773 ft 377 kts 269°
2026-05-04 22:43 49.58609 -121.35846 24242 ft 375 kts 269°
2026-05-04 22:43 49.58253 -121.39807 23770 ft 374 kts 269°
2026-05-04 22:43 49.57896 -121.43756 23228 ft 371 kts 269°
2026-05-04 22:43 49.57540 -121.47657 22717 ft 364 kts 269°
2026-05-04 22:44 49.57193 -121.51460 22237 ft 354 kts 270°
2026-05-04 22:44 49.56857 -121.55219 21779 ft 365 kts 269°
2026-05-04 22:44 49.56502 -121.59076 21292 ft 361 kts 268°
2026-05-04 22:44 49.56145 -121.62859 20796 ft 353 kts 268°
2026-05-04 22:45 49.55807 -121.66578 20346 ft 352 kts 268°
2026-05-04 22:45 49.55119 -121.74045 19412 ft 349 kts 268°
2026-05-04 22:45 49.54771 -121.77715 18965 ft 344 kts 267°
2026-05-04 22:46 49.54432 -121.81357 18511 ft 345 kts 268°
2026-05-04 22:46 49.54093 -121.85005 18040 ft 344 kts 267°
2026-05-04 22:46 49.53754 -121.88585 17578 ft 341 kts 267°
2026-05-04 22:46 49.53412 -121.92184 17138 ft 338 kts 266°
2026-05-04 22:47 49.53076 -121.95712 16683 ft 331 kts 266°
2026-05-04 22:47 49.52744 -121.99216 16261 ft 331 kts 266°
2026-05-04 22:47 49.52404 -122.02714 15833 ft 330 kts 264°
2026-05-04 22:47 49.51615 -122.06052 15398 ft 335 kts 244°
2026-05-04 22:48 49.50433 -122.09108 14966 ft 331 kts 241°
2026-05-04 22:48 49.49203 -122.12102 14539 ft 333 kts 240°
2026-05-04 22:48 49.47993 -122.15053 14115 ft 327 kts 241°
2026-05-04 22:48 49.46806 -122.18014 13686 ft 324 kts 242°
2026-05-04 22:49 49.45637 -122.20984 13217 ft 324 kts 242°
2026-05-04 22:49 49.44475 -122.23934 12808 ft 324 kts 242°
2026-05-04 22:49 49.43308 -122.26872 12388 ft 318 kts 241°
2026-05-04 22:49 49.42171 -122.29721 12086 ft 305 kts 241°
2026-05-04 22:50 49.41095 -122.32421 11968 ft 287 kts 241°
2026-05-04 22:50 49.40065 -122.34932 11756 ft 275 kts 236°
2026-05-04 22:50 49.38755 -122.37166 11435 ft 285 kts 231°
2026-05-04 22:50 49.37470 -122.39423 11063 ft 284 kts 232°
2026-05-04 22:51 49.36178 -122.41700 10692 ft 283 kts 231°
2026-05-04 22:51 49.34875 -122.43958 10321 ft 281 kts 230°
2026-05-04 22:51 49.33565 -122.46177 9951 ft 280 kts 230°
2026-05-04 22:51 49.32260 -122.48386 9578 ft 280 kts 230°
2026-05-04 22:52 49.30956 -122.50613 9192 ft 279 kts 230°
2026-05-04 22:52 49.29671 -122.52798 8829 ft 274 kts 230°
2026-05-04 22:52 49.28406 -122.54952 8466 ft 270 kts 230°
2026-05-04 22:52 49.27164 -122.57068 8273 ft 264 kts 230°
2026-05-04 22:53 49.25911 -122.59210 7877 ft 272 kts 231°
2026-05-04 22:53 49.24679 -122.61317 7513 ft 265 kts 230°
2026-05-04 22:53 49.23459 -122.63401 7169 ft 261 kts 230°
2026-05-04 22:53 49.22247 -122.65459 6817 ft 258 kts 230°
2026-05-04 22:54 49.21058 -122.67482 6487 ft 254 kts 231°
2026-05-04 22:54 49.20103 -122.69712 6144 ft 249 kts 241°
2026-05-04 22:54 49.19197 -122.71946 5794 ft 241 kts 239°
2026-05-04 22:54 49.18337 -122.74015 5521 ft 220 kts 240°
2026-05-04 22:55 49.17575 -122.75888 5241 ft 201 kts 240°
2026-05-04 22:55 49.16870 -122.77632 4988 ft 189 kts 241°
2026-05-04 22:55 49.16199 -122.79343 4754 ft 184 kts 244°
2026-05-04 22:55 49.16015 -122.81187 4489 ft 170 kts 275°
2026-05-04 22:56 49.16274 -122.82964 4186 ft 172 kts 281°
2026-05-04 22:56 49.16481 -122.84760 3960 ft 171 kts 279°
2026-05-04 22:56 49.16685 -122.86541 3742 ft 171 kts 279°
2026-05-04 22:56 49.16889 -122.88338 3515 ft 173 kts 279°
2026-05-04 22:57 49.17100 -122.90139 3300 ft 172 kts 278°
2026-05-04 22:57 49.17303 -122.91942 3071 ft 170 kts 278°
2026-05-04 22:57 49.17505 -122.93719 2855 ft 174 kts 278°
2026-05-04 22:57 49.17710 -122.95489 2631 ft 166 kts 278°
2026-05-04 22:58 49.17909 -122.97219 2413 ft 163 kts 277°
2026-05-04 22:58 49.18094 -122.98887 2202 ft 157 kts 278°
2026-05-04 22:58 49.18290 -123.00540 2007 ft 162 kts 279°
2026-05-04 22:58 49.18475 -123.02210 1794 ft 155 kts 277°
2026-05-04 22:59 49.18663 -123.03859 1589 ft 160 kts 278°
2026-05-04 22:59 49.18862 -123.05544 1379 ft 161 kts 278°
2026-05-04 22:59 49.19046 -123.07143 1167 ft 143 kts 277°
2026-05-04 22:59 49.19215 -123.08581 985 ft 138 kts 278°
2026-05-04 23:00 49.19379 -123.10010 864 ft 137 kts 277°
2026-05-04 23:00 49.19549 -123.11425 720 ft 134 kts 277°
2026-05-04 23:00 49.19704 -123.12843 539 ft 138 kts 273°
2026-05-04 23:00 49.19857 -123.14285 321 ft 131 kts 276°
2026-05-04 23:01 49.20013 -123.15636 133 ft 128 kts 276°
2026-05-04 23:01 49.20157 -123.16942 32 ft 113 kts 276°
2026-05-04 23:01 49.20260 -123.17822 27 ft 55 kts 281°
2026-05-04 23:01 49.20295 -123.18140 29 ft 13 kts 277°
2026-05-04 23:02 49.20302 -123.18247 30 ft 11 kts 276°
2026-05-04 23:02 49.20305 -123.18322 30 ft 0 kts 271°
2026-05-04 23:02 49.20279 -123.18558 31 ft 19 kts 252°
2026-05-04 23:03 49.20236 -123.18745 29 ft 17 kts 249°
2026-05-04 23:03 49.20219 -123.18814 29 ft 0 kts 249°
2026-05-04 23:04 49.20219 -123.18815 29 ft 0 kts 249°
2026-05-04 23:04 49.20219 -123.18816 29 ft 1 kts 249°
2026-05-04 23:04 49.20218 -123.18817 29 ft 0 kts 249°
2026-05-04 23:05 49.20213 -123.18830 29 ft 4 kts 238°
2026-05-04 23:06 49.20190 -123.18855 29 ft 1 kts 195°
2026-05-04 23:06 49.20179 -123.18846 29 ft 3 kts 156°
2026-05-04 23:06 49.20168 -123.18823 29 ft 3 kts 121°
2026-05-04 23:06 49.20155 -123.18777 29 ft 8 kts 109°
2026-05-04 23:07 49.20140 -123.18676 29 ft 11 kts 103°
2026-05-04 23:07 49.20124 -123.18544 29 ft 14 kts 100°
2026-05-04 23:07 49.20107 -123.18386 29 ft 16 kts 99°
2026-05-04 23:07 49.20087 -123.18202 29 ft 19 kts 100°
2026-05-04 23:08 49.20063 -123.18005 29 ft 17 kts 100°
2026-05-04 23:08 49.20036 -123.17870 29 ft 6 kts 139°
2026-05-04 23:08 49.20004 -123.17860 29 ft 7 kts 172°
2026-05-04 23:08 49.19954 -123.17822 29 ft 9 kts 133°
2026-05-04 23:09 49.19932 -123.17734 29 ft 8 kts 103°
2026-05-04 23:09 49.19920 -123.17712 28 ft 2 kts 152°
2026-05-04 23:09 49.19891 -123.17719 29 ft 7 kts 193°
2026-05-04 23:09 49.19845 -123.17757 29 ft 8 kts 210°
2026-05-04 23:10 49.19826 -123.17773 29 ft 2 kts 210°
2026-05-04 23:10 49.19820 -123.17778 28 ft 0 kts 210°